1998-067PB (43553 NORAD) Tracking and Keplerian Element Data

This shows tracking and keplerian element data for the satellite.

Feedback or suggestion? Click here.




ElementValue
Catalog43553
Name1998-067PB
Epoch Orbit4416
Epoch Day112.76337937
Epoch Year2019
RAAN269.6419
Inclination51.6403
Eccentricity0.0006181
Argument of Perigee289.2071
Mean Anonmoly70.8253
Mean Motion15.59438112
Decay Rate9.886E-05
L11 43553U 98067PB 19112.76337937 .00009886 00000-0 12869-3 0 9999
L22 43553 51.6403 269.6419 0006181 289.2071 70.8253 15.59438112 44162

Live tracking and technical data element details for 1998-067PB (NORAD 43553). 1998-067PB can be tracked NOW for your location showing map with azimuth and elevation plus other details from your city location.

Track the satellite on the map from your city or location and see movement details for azimuth, elevation, latitude, longitude, range, height, and movement on the map or in text.







IsCatalogInMostPopularTable: catalog: 43553, numindb: 122
Update: records affected: 1



GetName: 43553 1998-067PB

Hit Count: updated at: Tue, 23 Apr 2019 20:40:25 GMT